Regional Weather Roundup
Issued by NWS Newport/Morehead, NC

Current Version | Previous Version | Graphics & Text | Print | Product List | Glossary Off
Versions: 1 2 3 4 5 6 7 8 9 10 11 12 13 14 15 16 17 18 19 20 21 22 23 24 25 26 27 28 29 30 31 32 33 34 35 36 37 38 39 40 41 42 43 44 45 46 47 48 49 50

000
ASUS42 KMHX 272110
RWRMHX
WEATHER ROUNDUP FOR EASTERN NORTH CAROLINA
NATIONAL WEATHER SERVICE NEWPORT/MOREHEAD CITY NC
500 PM EDT WED AUG 27 2014

NOTE: "FAIR" INDICATES FEW OR NO CLOUDS BELOW 12,000 FEET
WITH NO SIGNIFICANT WEATHER AND/OR OBSTRUCTIONS TO VISIBILITY

NCZ015>017-031-032-045>047-102-103-272200-
NORTH COAST

CITY           SKY/WX    TMP DP  RH WIND       PRES   REMARKS
EDENTON        MOSUNNY   84  67  56 N9        29.94S
ELIZABETH CITY SUNNY     82  67  60 NE12      29.94F
KITTY HAWK     MOCLDY    77  70  81 N9G17     29.94R
MANTEO         CLOUDY    78  71  79 N14       29.95R

$$

NCZ045>047-081-094-103-104-272200-
CENTRAL COAST

CITY           SKY/WX    TMP DP  RH WIND       PRES   REMARKS
FRISCO         PTSUNNY   79  73  82 N9G24     29.91S
SWANQUARTER      N/A     84 N/A N/A NE8G17    29.88S

$$

NCZ095-097-098-100-101-272200-
SOUTHERN COAST

CITY           SKY/WX    TMP DP  RH WIND       PRES   REMARKS
BEAUFORT       SUNNY     86  70  58 NE10      29.92S
CEDAR ISLAND     N/A     82 N/A N/A N16       29.97S
JACKSONVILLE   MOSUNNY   87  68  52 N13       29.92F
NEWPORT        NOT AVBL
PINEY ISLAND   CLEAR     85  73  67 NE13      29.92S
WILMINGTON     MOSUNNY   85  68  56 NW12      29.93F


$$

NCZ011>013-027>030-043-044-078>080-089-090>093-098-272200-
COASTAL PLAIN

CITY           SKY/WX    TMP DP  RH WIND       PRES   REMARKS
AHOSKIE        MOSUNNY   82  64  53 N6        29.96F
CLINTON        SUNNY     85  59  40 NE5       29.97F
ELIZABETHTOWN  SUNNY     86  61  42 NE3       29.96S
GOLDSBORO      SUNNY     84  63  49 N8        29.95S
GREENVILLE     SUNNY     84  68  58 N8        29.98S
HAVELOCK       MOSUNNY   85  68  56 N12       29.93F
KENANSVILLE    SUNNY     84  62  46 NW7       29.97S
KINSTON        MOSUNNY   86  66  51 N8        29.96F
NEW BERN       MOSUNNY   88  69  53 N12       29.94S
RICHLANDS      PTSUNNY   86  66  51 NW7       29.94S
ROANOKE RAPIDS NOT AVBL
ROCKY MOUNT    SUNNY     85  60  42 VRB5      29.97F
WASHINGTON     SUNNY     84  67  57 N9        29.95S
WHITEVILLE     SUNNY     86  60  42 N5        29.95S

$$

AMZ130-135-150-152-154-156-158-170-250-252-270-ANZ085-086-088-633-658-670-272200-
MARINE OBSERVATIONS

STATION/POSITION TIME  TEMP    WIND        PRES    WAVE   SWELL
                       AIR SEA DIR/SP/G            HT/PER HT/PER
                 (UTC) (F)     (DEG/KT/KT) (MB)    (FT/S) (FT/S)
CHESAPEAKE LIGHT 2000   73      30/ 11/ 12 1015.1
BUOY 44014       2100   77 78   20/ 14/ 17 1012.8    8/13   7/13
DUCK             2100   74 77   10/ 14/ 16 1013.3
2E DUCK          2100                        N/A     6/13   3/13
OREGON INLET     2100   77 78  350/ 12/ 18 1013.4
BUOY 44095       2100      76                N/A     9/13   5/13
20E OREGON INLET NOT AVBL
HATTERAS CG      2100   78 80   10/ 20/ 24 1013.2
DIAMOND BUOY     2100   77     360/ 23/ 29 1011.5   11/12   8/12
CAPE LOOKOUT     2000   81      40/ 15/ 19 1012.9
BEAUFORT LAB     2100   83 79   10/ 13/ 17 1012.4
30 SE NEW RIVER  2100   81 80  360/ 12/ 12 1013.2    7/ 9   7/ 9
5 SE WRIGHTSVILL 2100   80 81   30/  8/ 10   N/A
BUOY 41002       2023   81 81  340/ 21/ 23 1009.7   10/10   5/10
BUOY 41004       2100   81 82   10/ 10/ 12 1014.2    5/11   5/11

$$



USA.gov is the U.S. government's official web portal to all federal, state and local government web resources and services.